sat.trackr.live / text

‹ back to catalog

STARLINK-34499

NORAD 64709 · 2025-142P

PAYLOAD ACTIVE UNKNOWN

§ Identity

Operator
Country
US
Launch date
2025-06-28
Launch site
AFWTR
Launch vehicle
Mass (kg)
RCS (m²)

Purposes: comms

External: N2YO · Heavens-Above · Gunter

§ Orbital elements

Epoch: 2026-05-25T04:48:21.150720Z

Period
96.11 min
Inclination
70.0004°
Eccentricity
0.0004102
Mean motion
14.98333760 rev/d
Perigee alt
569.2 km
Apogee alt
574.9 km
Semi-major
6,950.2 km
B*
2.2459e-4
RAAN
121.4306°
Arg perigee
263.0912°
Mean anomaly
96.9780°
Rev number
5,092

§ Raw data

STARLINK-344991 64709U 25142P   26145.20024480  .00002588  00000+0  22459-3 0  99952 64709  70.0004 121.4306 0004102 263.0912  96.9780 14.98333760 50925

JSON: /api/v1/satellites/64709 · /tle

For live sub-satellite position, see the globe view (requires WebGL).

§ Visibility from observer

Set your observer location to see the next 7 days of passes ≥ 10°. The values pass through the URL so the page stays shareable.

No JS? Fill the form by hand. The geolocation button needs JavaScript.